This demonstration page uses our WeatherBlox Daily Observations layout. Learn more.

38.89511, -77.03637

Hourly Observations for September 22, 2015

Temp ( °F °C ) Dew Point ( °F °C ) Humidity (%) Winds ( mph kmh ) Pressure ( in mb ) Visibility ( mi km ) Precip ( " mm )
12:52 am 00:52 Cloudy 63 17 59 15 88 88 NNE 9 15 30.21 1023 10 16.09344 0 0
1:52 am 01:52 Cloudy 63 17 59 15 88 88 NE 12 19 30.21 1023 10 16.09344 0 0
2:52 am 02:52 Cloudy 63 17 59 15 88 88 NNE 8 13 30.18 1022 10 16.09344 0 0
3:52 am 03:52 Cloudy 63 17 57 14 83 83 NNE 8 13 30.21 1023 10 16.09344 0 0
4:52 am 04:52 Cloudy 63 17 57 14 83 83 NNE 9 15 30.21 1023 10 16.09344 0 0
5:52 am 05:52 Cloudy 63 17 57 14 83 83 NNE 10 17 30.21 1023 10 16.09344 0 0
6:52 am 06:52 Cloudy 63 17 57 14 83 83 NNE 9 15 30.21 1023 10 16.09344 0 0
7:52 am 07:52 Cloudy 63 17 55 13 77 77 N 10 17 30.21 1023 10 16.09344 0 0
8:52 am 08:52 Cloudy 64 18 55 13 73 73 NNE 12 19 30.24 1024 10 16.09344 0 0
9:52 am 09:52 Cloudy 64 18 57 14 78 78 NNE 9 15 30.24 1024 10 16.09344 0 0
10:52 am 10:52 Cloudy 66 19 57 14 73 73 NE 12 19 30.24 1024 10 16.09344 0 0
11:52 am 11:52 Cloudy 70 21 57 14 64 64 NNE 9 15 30.24 1024 10 16.09344 0 0
12:52 pm 12:52 Cloudy 72 22 57 14 61 61 NE 9 15 30.24 1024 10 16.09344 0 0
1:52 pm 13:52 Cloudy 73 23 57 14 57 57 N 12 19 30.24 1024 10 16.09344 0 0
2:37 pm 14:37 Cloudy 73 23 57 14 57 57 NE 9 15 30.21 1023 10 16.09344 0 0
2:52 pm 14:52 Cloudy 72 22 57 14 61 61 NE 12 19 30.21 1023 10 16.09344 0 0
3:52 pm 15:52 Mostly Cloudy 73 23 57 14 57 57 NE 10 17 30.21 1023 10 16.09344 0 0
4:52 pm 16:52 Mostly Cloudy 73 23 57 14 57 57 NNE 10 17 30.18 1022 10 16.09344 0 0
5:52 pm 17:52 Mostly Cloudy 73 23 57 14 57 57 ENE 12 19 30.21 1023 10 16.09344 0 0
6:52 pm 18:52 Mostly Cloudy 72 22 57 14 61 61 NE 8 13 30.21 1023 10 16.09344 0 0
7:52 pm 19:52 Mostly Cloudy 72 22 57 14 61 61 NNE 10 17 30.21 1023 10 16.09344 0 0
8:52 pm 20:52 Cloudy 70 21 57 14 64 64 NNE 9 15 30.21 1023 10 16.09344 0 0
9:52 pm 21:52 Cloudy 70 21 57 14 64 64 NNE 10 17 30.21 1023 10 16.09344 0 0
10:52 pm 22:52 Mostly Cloudy 66 19 57 14 73 73 NNE 9 15 30.24 1024 10 16.09344 0 0
11:52 pm 23:52 Mostly Cloudy 66 19 57 14 73 73 N 9 15 30.24 1024 10 16.09344 0 0

Powered by AerisWeather